Location: ??????
(56.0120°N, 39.1740°E)
Time: 18:15:28
(UTC+00:00)

Cosmos 1825 Rocket - Pass Details

Date: 14 April 2026
Orbit: 596 x 623 km, 82.5° (Epoch: 16 May)

Event Time Altitude Azimuth Distance (km) Brightness Sun altitude
Rises 22:44:59 0° 348° (NNW) 2,866 7.9 -22.2°
Reaches altitude 10° 22:47:13 10° 350° (N) 1,956 6.9 -22.0°
Maximum altitude 22:51:33 76° 76° (ENE) 624 3.5 -21.8°
Enters shadow 22:52:27 54° 146° (SE) 734 3.7 -21.8°
